Temperature
16 16 16 16 16 16 16 16 16 16 16 16 16 16 16 16 16 16 16 16 16 16 16 16 17 17 17 17 17 17 17 17 17 17 17 17 17 17 17 17 17 18 18
16 16 16 16 16 16 16 16 16 16 16 16 16 16 16 16 16 16 16 16 16 16 16 16 16 16 16 16 16 16 17 17 17 17 17 17 17 17 17 17 17 17 18
16 16 16 16 16 16 16 16 16 16 16 16 16 16 16 16 16 16 16 16 16 16 16 16 16 16 16 16 16 16 16 16 17 17 17 17 17 17 17 17 17 17 17
16 16 16 16 16 16 16 16 16 16 16 16 16 16 16 16 16 16 16 16 16 16 16 16 16 16 16 16 16 16 16 16 16 17 17 17 17 17 17 17 17 17 17
16 16 16 16 16 16 16 16 16 16 16 16 16 16 16 16 16 16 16 16 16 16 16 16 16 16 16 16 16 16 16 16 16 16 16 16 17 17 17 17 17 17 17
16 16 16 16 15 15 15 15 16 16 16 16 16 16 16 16 16 16 16 16 16 16 16 16 16 16 16 16 16 16 16 16 16 16 16 16 17 17 17 17 17 17 17
16 16 16 15 15 15 15 15 15 16 16 16 16 16 16 16 16 15 16 15 15 15 15 15 15 15 16 16 15 15 15 16 16 16 16 16 16 17 17 17 17 17 17
16 16 16 15 15 15 15 15 15 15 15 15 16 16 15 15 15 15 15 15 15 15 15 15 15 15 15 15 15 15 15 16 16 16 16 16 16 16 17 17 17 17 17
16 15 15 15 15 15 15 15 15 15 15 15 15 15 15 15 15 15 15 15 15 15 15 15 15 15 15 15 15 15 15 15 16 16 16 16 16 16 16 17 17 17 17
15 15 15 15 15 15 15 15 15 15 15 15 15 15 15 15 15 15 15 15 15 15 15 15 15 15 15 15 15 15 15 15 15 16 16 16 16 16 16 16 16 16 17
15 15 15 15 15 15 15 15 15 15 15 15 15 15 15 15 15 15 15 15 15 15 15 15 15 15 15 15 15 15 15 15 15 15 15 16 16 16 16 16 16 16 16
15 15 15 15 15 15 15 15 15 15 15 15 15 15 15 15 15 15 15 14 14 14 14 14 14 14 14 14 14 15 15 15 15 15 15 15 15 16 16 16 16 16 16
16 15 15 15 15 15 15 15 15 15 15 15 15 15 15 15 15 15 15 14 14 14 14 14 14 14 14 14 14 14 14 14 15 15 15 15 15 15 15 16 16 16 16
16 15 15 15 15 15 15 15 15 15 15 15 15 14 14 14 14 15 15 14 14 14 14 14 14 14 14 14 14 14 14 14 14 14 15 15 15 15 15 15 15 15 16
15 15 15 15 15 15 15 15 15 14 14 14 14 14 14 14 14 14 14 14 14 14 13 13 13 13 14 14 14 14 14 14 14 14 14 14 15 15 15 15 15 15 15
15 15 15 15 15 15 15 15 14 14 14 14 14 14 14 14 14 14 14 14 14 14 13 13 13 13 13 13 14 14 14 14 14 14 14 14 14 15 15 15 15 15 15
15 15 15 15 15 15 14 14 14 14 14 14 14 14 14 14 14 14 14 14 14 14 13 13 13 13 13 13 13 14 14 14 14 14 14 14 14 14 14 14 14 14 14
15 15 15 15 15 14 14 14 14 14 14 14 14 14 14 14 14 14 13 13 13 13 13 13 13 13 13 13 13 13 13 13 13 13 14 14 14 14 14 14 14 14 14
15 15 15 15 14 14 14 14 14 14 14 14 14 14 14 14 14 13 13 13 13 13 13 13 12 13 13 13 13 13 13 13 13 13 13 13 13 13 13 13 13 13 13
15 15 15 14 14 14 14 14 14 14 14 13 13 13 13 13 13 13 13 13 12 12 12 12 12 12 12 12 12 13 13 13 13 13 13 13 13 13 13 13 13 13 13
15 15 15 14 14 14 14 13 13 13 13 13 13 13 13 13 13 12 12 12 12 12 12 12 12 12 12 12 11 12 12 12 12 12 12 12 12 12 12 12 12 12 12
15 14 14 14 14 14 13 13 13 13 13 13 13 13 13 12 12 12 12 12 12 12 12 11 11 11 11 11 11 11 11 11 11 11 11 12 12 12 12 12 12 12 12
15 14 14 14 14 13 13 13 13 13 13 12 12 12 12 12 12 12 12 11 11 11 11 11 11 10 10 10 10 10 10 10 10 10 11 11 11 11 11 11 11 11 11
14 14 14 14 13 13 13 13 12 12 12 12 12 12 12 12 12 11 11 11 11 11 11 10 10 10 10 10 10 10 10 10 10 10 10 10 10 10 10 10 11 10 10
14 14 14 13 13 13 13 12 12 12 12 12 12 11 11 11 11 11 11 11 11 10 10 10 10 10 10 10 10 10 10 10 9 10 9 9 9 10 10 10 10 10 10
14 14 13 13 13 13 12 12 12 12 12 12 11 11 11 11 11 11 11 10 10 10 10 10 10 10 10 9 9 9 9 9 9 8 8 8 8 8 9 9 9 9 10
Wind_Speed
2 2 1 3 3 3 2 2 2 2 2 2 2 3 3 3 3 3 2 3 3 3 3 4 4 4 4 3 3 3 3 3 3 2 2 2 2 2 3 4 4 4 5
4 3 3 3 3 3 4 3 3 2 2 2 3 3 3 3 3 3 3 2 2 2 3 4 4 4 3 2 2 2 2 2 2 1 1 1 1 2 3 5 5 5 5
6 5 3 3 3 5 6 6 5 4 3 3 4 3 3 3 3 3 2 2 1 1 2 3 4 3 3 2 2 2 2 1 1 0 1 1 1 2 3 4 6 6 6
8 6 3 3 5 6 5 3 3 4 4 3 3 3 3 3 2 2 2 1 1 1 1 1 2 3 2 1 1 1 1 1 1 1 1 2 2 3 4 5 6 7 7
8 7 4 3 6 5 3 3 4 3 3 3 2 3 3 3 2 3 2 1 1 1 1 1 1 2 1 1 1 0 1 2 2 2 2 3 4 4 5 6 6 7 7
8 7 4 5 6 4 4 4 4 4 2 2 3 4 4 3 3 3 2 3 3 2 3 3 2 2 2 0 1 1 2 3 3 3 4 4 5 5 6 6 6 6 7
8 7 4 4 4 4 3 3 3 4 4 3 4 4 5 5 5 4 3 3 3 4 4 3 2 1 2 2 2 2 3 3 4 4 5 6 6 6 6 6 6 7 7
6 6 5 3 3 4 5 5 4 3 3 3 3 3 4 5 5 5 4 4 4 4 4 4 3 3 3 2 2 2 3 4 5 5 6 6 6 5 5 5 5 6 7
7 6 5 4 4 3 3 3 4 4 3 4 3 3 3 0 2 4 5 5 4 3 3 4 4 4 3 3 3 3 3 4 5 5 6 6 5 4 4 4 4 5 6
6 7 6 5 4 3 3 3 3 3 3 3 3 3 2 3 2 2 4 4 4 4 4 4 5 5 4 4 4 4 4 5 5 6 6 6 5 3 3 3 3 4 5
5 6 6 5 4 3 3 4 4 4 3 3 2 2 3 3 3 3 1 4 4 4 4 3 4 5 6 6 5 5 5 6 6 7 8 7 6 5 4 3 2 3 3
2 4 5 5 4 3 3 3 4 5 4 4 3 3 2 2 1 2 1 1 2 3 3 4 4 5 6 7 6 7 7 8 8 9 9 7 7 7 5 3 3 2 1
1 2 3 3 3 3 4 4 5 5 4 5 4 3 3 2 1 2 2 1 1 2 3 4 4 6 7 8 8 8 8 9 10 10 10 9 9 9 7 6 5 4 3
2 2 3 3 4 5 5 5 4 4 5 5 5 4 4 3 2 2 2 2 2 3 3 4 3 6 8 8 9 8 8 9 10 10 10 11 10 10 9 8 7 6 5
3 4 4 4 5 6 5 5 5 4 5 5 5 5 4 3 3 3 2 2 3 2 2 3 3 5 8 8 10 8 8 9 10 9 10 10 11 11 11 10 9 8 8
4 5 5 5 5 5 5 5 5 5 6 4 4 5 5 3 4 3 3 2 2 3 1 2 2 3 5 7 10 9 9 9 9 9 9 10 10 10 10 10 9 9 9
5 5 5 5 5 5 5 6 5 5 6 5 5 6 5 4 4 4 3 3 3 2 2 2 2 3 5 6 8 10 10 9 8 9 9 9 9 9 9 9 9 8 8
5 5 5 5 5 5 4 5 5 5 6 5 5 5 5 4 5 4 4 4 3 2 2 1 3 4 4 5 5 6 8 9 8 10 11 9 8 8 9 9 9 8 7
6 5 6 5 4 4 4 4 5 5 5 4 4 4 4 5 5 4 4 4 3 4 3 2 2 2 3 4 5 5 6 6 8 10 11 10 10 9 9 9 8 8 7
7 5 5 5 4 4 4 4 5 5 5 4 4 4 3 3 3 3 4 4 3 4 4 3 2 3 3 4 4 5 6 5 5 8 10 10 10 11 10 10 9 9 9
6 5 5 5 4 4 4 4 5 6 5 5 4 4 4 5 5 4 4 3 3 3 3 3 2 3 3 4 4 3 4 5 4 4 5 6 8 8 10 11 10 11 11
5 6 5 5 4 3 6 7 6 5 5 4 4 3 4 5 6 7 7 6 4 3 2 2 1 2 3 3 3 3 3 4 4 4 4 5 5 4 6 8 10 12 13
6 6 5 5 4 4 8 9 9 6 5 4 3 3 3 4 5 3 5 7 6 5 3 2 1 1 2 3 2 3 3 2 3 4 3 4 4 4 6 8 11 11 12
6 5 4 4 4 4 7 8 9 6 5 3 2 2 2 2 3 3 3 4 4 3 3 2 1 2 2 2 1 2 3 3 4 3 2 2 4 4 6 8 10 11 12
5 4 4 4 4 3 6 8 8 4 4 3 2 2 2 1 4 4 3 3 3 4 5 5 5 5 6 5 4 2 3 3 4 4 2 1 4 5 4 4 8 10 12
5 5 4 4 4 3 4 6 8 4 3 2 2 2 2 2 3 3 2 2 2 4 4 6 7 8 8 7 7 2 1 1 2 3 3 2 3 4 4 3 4 8 10
Wind_Direction
80 68 32 42 37 51 57 49 54 46 36 38 58 90 107 126 128 133 134 133 134 130 116 112 110 111 114 116 107 106 114 119 115 115 125 133 147 184 193 190 188 186 189
82 71 56 49 41 49 62 66 63 58 38 40 42 67 102 119 114 131 132 119 118 118 126 129 118 113 107 100 103 95 101 100 118 124 126 142 163 202 207 206 202 200 202
82 78 63 47 38 54 63 59 51 51 48 43 38 35 62 87 99 112 134 114 95 103 136 146 132 123 109 93 80 78 72 80 81 161 260 238 220 218 219 221 218 214 215
85 78 64 48 50 60 60 62 48 48 40 38 32 25 34 52 71 101 109 99 95 81 93 151 154 137 126 110 88 75 23 12 344 318 298 277 260 238 228 230 231 228 225
77 78 65 53 61 58 45 55 49 52 45 32 38 38 30 35 35 65 68 64 83 88 79 75 118 113 112 117 149 218 321 311 305 302 296 287 268 256 242 236 236 232 228
77 77 66 53 60 59 45 47 51 39 46 40 53 44 26 22 32 45 48 51 55 66 77 81 73 52 54 62 309 306 305 300 300 300 299 295 282 265 254 243 240 238 234
74 77 71 57 56 63 54 51 56 43 29 36 58 31 13 21 31 25 22 35 37 47 74 77 68 34 12 13 338 325 320 318 312 311 306 304 295 277 265 252 246 243 238
70 77 78 72 65 66 54 49 59 56 27 32 84 72 25 6 7 12 12 27 21 33 45 52 54 35 18 12 356 339 329 328 321 318 319 313 297 281 269 260 251 244 241
71 73 79 77 68 75 71 60 67 77 52 20 53 116 111 111 339 352 10 21 17 23 20 29 34 35 36 25 0 351 344 337 340 336 327 321 308 294 279 265 260 248 241
70 70 74 74 69 66 66 59 70 78 86 47 20 43 112 149 124 12 350 357 9 22 12 22 25 32 36 29 13 360 353 345 343 344 337 330 326 324 307 289 280 263 243
58 67 74 75 69 64 63 58 62 65 76 82 57 49 59 58 75 115 28 344 360 2 6 13 25 25 25 27 20 12 4 1 355 351 341 338 339 343 334 316 302 276 252
36 51 70 74 72 68 67 65 69 70 70 73 62 59 77 85 82 102 117 355 355 339 0 17 20 19 22 23 19 16 11 13 11 7 3 1 3 8 5 3 1 333 270
68 54 64 70 72 76 73 72 73 65 65 70 64 57 57 60 102 117 114 91 24 341 355 5 4 13 17 19 16 11 12 16 15 13 15 19 19 15 20 29 32 28 34
145 109 85 81 78 76 75 73 72 69 68 66 62 60 58 38 54 85 121 122 63 12 10 346 344 5 7 13 13 14 16 16 16 16 16 19 19 17 22 27 33 33 36
121 103 93 88 77 74 72 76 72 66 70 66 62 61 57 38 47 52 71 109 127 89 355 334 345 343 0 16 12 16 11 9 15 20 21 21 21 20 23 28 32 34 34
109 106 94 87 80 72 71 76 72 68 74 63 61 62 50 36 40 41 54 57 87 132 124 319 328 329 356 11 10 13 10 11 13 16 18 18 20 21 21 23 29 35 37
114 112 107 99 88 78 75 78 74 76 77 64 56 64 51 43 48 38 42 49 52 88 113 327 333 344 5 5 3 8 11 12 7 8 10 13 16 17 16 18 22 30 32
115 114 109 104 94 85 80 84 83 79 80 73 61 61 45 49 47 40 46 47 45 55 104 30 347 353 360 355 357 360 9 11 7 11 12 10 9 13 14 15 17 18 17
113 108 106 106 101 94 86 85 91 89 84 78 73 71 55 60 54 45 52 50 40 46 55 76 0 351 350 355 358 357 1 2 7 10 10 9 8 6 7 5 7 6 2
115 113 108 108 109 103 95 92 92 89 81 70 66 69 63 71 77 70 61 52 52 50 45 49 21 357 348 341 1 358 354 348 347 3 6 7 5 5 3 360 356 355 350
117 118 109 98 97 102 111 110 102 97 87 68 52 48 53 63 67 75 75 71 68 59 47 41 21 4 352 354 352 339 341 329 333 354 352 357 1 2 359 359 357 352 347
112 110 108 105 95 99 114 114 112 101 92 83 63 43 45 48 51 55 59 65 78 86 79 61 25 358 325 319 324 340 340 351 336 336 351 336 354 345 343 354 358 359 356
120 115 116 111 105 109 113 109 108 106 99 93 85 64 52 43 46 49 45 45 45 55 78 122 115 288 298 307 332 342 334 317 291 303 341 323 331 326 326 338 348 352 351
134 131 130 123 113 114 114 110 108 98 94 92 99 99 80 32 33 54 52 40 28 23 29 51 194 268 282 286 270 292 284 304 301 314 353 317 316 308 314 323 336 344 344
138 136 136 129 121 120 119 117 110 99 91 70 64 82 83 52 33 51 66 46 13 351 7 8 353 341 336 338 351 7 355 1 327 313 326 311 308 308 303 304 326 334 333
142 137 127 128 130 135 130 127 120 114 103 78 35 20 32 31 26 44 80 75 14 331 343 352 354 354 355 353 350 346 282 306 303 304 303 316 311 329 318 298 307 322 323
Height
1550 1549 1549 1548 1548 1548 1548 1548 1547 1547 1547 1547 1547 1547 1547 1547 1547 1547 1547 1547 1547 1546 1546 1546 1545 1545 1545 1546 1546 1547 1547 1547 1548 1548 1549 1549 1550 1550 1551 1552 1553 1554 1554
1550 1550 1550 1549 1549 1549 1548 1548 1548 1547 1547 1547 1547 1548 1548 1548 1548 1548 1548 1548 1547 1547 1547 1546 1546 1546 1546 1546 1546 1547 1547 1547 1548 1548 1548 1549 1549 1549 1550 1551 1552 1553 1554
1551 1551 1550 1550 1550 1549 1549 1548 1548 1548 1548 1548 1548 1548 1548 1548 1548 1548 1548 1548 1548 1548 1547 1547 1547 1546 1546 1546 1546 1546 1547 1547 1547 1547 1548 1548 1548 1548 1549 1550 1551 1552 1552
1552 1551 1551 1550 1550 1550 1549 1549 1548 1548 1548 1548 1548 1548 1549 1549 1549 1549 1549 1549 1549 1548 1548 1547 1547 1547 1547 1547 1546 1546 1547 1547 1547 1547 1547 1547 1547 1547 1548 1548 1549 1550 1550
1553 1552 1552 1551 1551 1550 1550 1549 1549 1549 1549 1549 1549 1549 1549 1549 1550 1550 1549 1549 1549 1549 1549 1548 1548 1548 1547 1547 1547 1547 1546 1546 1546 1546 1545 1545 1545 1545 1546 1546 1547 1547 1548
1553 1553 1552 1552 1551 1551 1550 1550 1550 1549 1549 1549 1549 1550 1550 1550 1551 1550 1550 1550 1550 1550 1549 1549 1549 1548 1548 1547 1547 1546 1546 1546 1545 1545 1544 1543 1542 1542 1542 1543 1544 1545 1546
1554 1553 1553 1552 1552 1551 1551 1551 1550 1550 1550 1550 1550 1551 1551 1551 1552 1552 1551 1551 1551 1550 1550 1550 1549 1549 1548 1548 1547 1547 1546 1545 1544 1543 1542 1540 1538 1537 1538 1539 1541 1542 1543
1555 1554 1554 1553 1553 1552 1552 1552 1551 1551 1551 1551 1551 1551 1552 1554 1553 1553 1553 1552 1552 1551 1551 1550 1550 1549 1549 1548 1547 1547 1546 1545 1543 1542 1539 1536 1534 1533 1534 1536 1537 1539 1540
1556 1555 1555 1554 1554 1553 1553 1553 1553 1552 1552 1552 1552 1553 1553 1553 1553 1554 1554 1553 1553 1552 1552 1551 1551 1550 1549 1548 1547 1546 1545 1544 1542 1540 1538 1534 1532 1531 1531 1533 1535 1536 1537
1557 1556 1556 1555 1555 1554 1554 1554 1554 1553 1553 1553 1553 1553 1554 1553 1554 1554 1555 1554 1554 1553 1553 1552 1551 1550 1550 1549 1547 1546 1545 1543 1541 1540 1537 1534 1532 1531 1531 1532 1533 1533 1534
1558 1557 1557 1557 1556 1556 1555 1555 1555 1554 1554 1554 1554 1554 1554 1554 1554 1554 1554 1555 1555 1554 1553 1553 1552 1551 1550 1549 1547 1546 1544 1543 1541 1539 1536 1533 1532 1531 1531 1532 1532 1532 1531
1558 1558 1558 1558 1557 1557 1556 1556 1556 1556 1555 1555 1555 1555 1555 1554 1554 1554 1554 1554 1554 1555 1554 1554 1552 1551 1550 1549 1548 1546 1544 1542 1540 1537 1534 1531 1531 1532 1532 1531 1531 1531 1529
1559 1559 1559 1558 1558 1558 1558 1557 1557 1557 1557 1556 1556 1556 1556 1555 1555 1555 1555 1554 1554 1555 1555 1554 1553 1552 1551 1550 1548 1546 1545 1543 1540 1538 1534 1532 1532 1532 1532 1532 1532 1531 1530
1559 1560 1559 1559 1559 1559 1559 1559 1558 1558 1558 1557 1557 1557 1557 1556 1556 1556 1555 1555 1555 1555 1555 1554 1553 1552 1551 1550 1548 1547 1545 1543 1541 1539 1537 1535 1534 1534 1533 1533 1532 1532 1532
1560 1560 1560 1560 1560 1560 1559 1559 1559 1559 1559 1558 1558 1558 1557 1557 1557 1556 1556 1556 1556 1555 1555 1554 1553 1552 1551 1550 1548 1547 1545 1543 1542 1540 1538 1537 1536 1535 1534 1534 1534 1533 1533
1560 1561 1561 1561 1560 1560 1560 1560 1560 1560 1559 1559 1559 1558 1558 1558 1557 1557 1556 1556 1556 1555 1554 1554 1553 1552 1551 1550 1548 1547 1545 1544 1542 1541 1539 1538 1537 1536 1535 1535 1534 1534 1534
1561 1561 1561 1561 1561 1561 1561 1560 1560 1560 1560 1559 1559 1559 1558 1558 1558 1557 1557 1556 1556 1555 1554 1554 1553 1552 1551 1549 1548 1546 1545 1543 1542 1541 1539 1538 1537 1536 1535 1535 1534 1534 1533
1561 1561 1561 1561 1561 1561 1561 1561 1561 1561 1560 1560 1559 1559 1558 1558 1558 1557 1557 1556 1555 1555 1554 1553 1552 1551 1550 1549 1547 1546 1544 1543 1542 1541 1539 1538 1537 1536 1535 1534 1533 1533 1533
1560 1561 1561 1561 1561 1561 1561 1561 1561 1561 1561 1560 1560 1560 1559 1558 1558 1557 1557 1556 1555 1555 1554 1553 1552 1551 1550 1548 1547 1545 1544 1543 1541 1540 1539 1538 1537 1536 1534 1533 1533 1532 1531
1560 1561 1561 1561 1561 1562 1562 1562 1561 1561 1561 1561 1561 1560 1560 1559 1558 1557 1557 1556 1555 1555 1554 1553 1551 1550 1549 1548 1546 1544 1543 1542 1540 1539 1538 1537 1536 1534 1533 1532 1531 1531 1530
1559 1560 1561 1561 1561 1561 1562 1562 1562 1561 1561 1561 1561 1560 1560 1559 1558 1558 1557 1556 1555 1554 1553 1552 1551 1549 1548 1546 1545 1543 1542 1540 1539 1538 1537 1536 1534 1533 1532 1531 1530 1529 1527
1559 1559 1560 1561 1561 1561 1561 1562 1562 1561 1561 1561 1560 1560 1560 1559 1558 1558 1557 1556 1555 1554 1553 1551 1550 1548 1547 1546 1544 1543 1541 1539 1537 1537 1535 1534 1533 1531 1530 1529 1528 1526 1525
1558 1559 1559 1560 1560 1561 1561 1561 1561 1561 1561 1560 1560 1559 1559 1558 1558 1557 1556 1555 1555 1553 1553 1551 1549 1548 1546 1545 1543 1542 1540 1539 1537 1535 1534 1532 1531 1529 1528 1527 1526 1524 1523
1557 1558 1558 1559 1559 1560 1560 1560 1560 1560 1560 1560 1560 1559 1558 1558 1557 1556 1555 1554 1553 1552 1551 1550 1549 1547 1546 1544 1542 1541 1539 1537 1536 1534 1532 1530 1528 1526 1525 1524 1523 1521 1520
1555 1556 1557 1558 1558 1559 1559 1559 1559 1559 1559 1559 1559 1558 1558 1557 1556 1555 1554 1553 1552 1551 1550 1549 1547 1546 1544 1543 1541 1539 1537 1535 1533 1531 1530 1528 1525 1523 1521 1520 1519 1518 1516
1554 1555 1556 1557 1557 1558 1558 1558 1558 1558 1558 1558 1557 1557 1556 1555 1555 1554 1553 1551 1550 1549 1548 1547 1546 1544 1542 1541 1539 1537 1535 1533 1531 1529 1528 1526 1523 1521 1517 1516 1515 1514 1511